Wetterdaten: Sonntag, 15.07.2007
Datum Zeit Temp. A. Feuchte A. Luftdruck Regen Wind Richtung Richtung Sonnenschein UV Solar Windben
15.07.2007 00:00 20,1 C 84 % 1015,8 hPa 0,0 mm 0,0 km/h (0 Bft) N-NW 337 0 min 0 UV-I 0 W/m 1,6 km/h (1 Bft)
15.07.2007 00:10 20,2 C 83 % 1015,8 hPa 0,0 mm 0,0 km/h (0 Bft) N-NW 337 0 min 0 UV-I 0 W/m 3,2 km/h (1 Bft)
15.07.2007 00:20 20,3 C 83 % 1015,9 hPa 0,0 mm 0,0 km/h (0 Bft) N 0 0 min 0 UV-I 0 W/m 0,0 km/h (0 Bft)
15.07.2007 00:30 20,2 C 84 % 1016,0 hPa 0,0 mm 0,0 km/h (0 Bft) N 0 0 min 0 UV-I 0 W/m 0,0 km/h (0 Bft)
15.07.2007 00:40 19,9 C 85 % 1016,1 hPa 0,0 mm 0,0 km/h (0 Bft) N 0 0 min 0 UV-I 0 W/m 0,0 km/h (0 Bft)
15.07.2007 00:50 19,9 C 85 % 1016,2 hPa 0,0 mm 0,0 km/h (0 Bft) N-NW 337 0 min 0 UV-I 0 W/m 1,6 km/h (1 Bft)
15.07.2007 01:00 19,8 C 85 % 1016,2 hPa 0,0 mm 0,0 km/h (0 Bft) N-NW 337 0 min 0 UV-I 0 W/m 1,6 km/h (1 Bft)
15.07.2007 01:10 19,5 C 86 % 1016,3 hPa 0,0 mm 0,0 km/h (0 Bft) N-NW 337 0 min 0 UV-I 0 W/m 3,2 km/h (1 Bft)
15.07.2007 01:20 19,4 C 86 % 1016,2 hPa 0,0 mm 0,0 km/h (0 Bft) NW 315 0 min 0 UV-I 0 W/m 3,2 km/h (1 Bft)
15.07.2007 01:30 19,4 C 86 % 1016,2 hPa 0,0 mm 0,0 km/h (0 Bft) NW 315 0 min 0 UV-I 0 W/m 3,2 km/h (1 Bft)
15.07.2007 01:40 19,3 C 86 % 1016,2 hPa 0,0 mm 0,0 km/h (0 Bft) NW 315 0 min 0 UV-I 0 W/m 1,6 km/h (1 Bft)
15.07.2007 01:50 19,1 C 87 % 1016,2 hPa 0,0 mm 0,0 km/h (0 Bft) NW 315 0 min 0 UV-I 0 W/m 1,6 km/h (1 Bft)
15.07.2007 02:00 18,8 C 87 % 1016,2 hPa 0,0 mm 0,0 km/h (0 Bft) N 0 0 min 0 UV-I 0 W/m 0,0 km/h (0 Bft)
15.07.2007 02:10 18,6 C 88 % 1016,1 hPa 0,0 mm 0,0 km/h (0 Bft) NW 315 0 min 0 UV-I 0 W/m 1,6 km/h (1 Bft)
15.07.2007 02:20 18,4 C 88 % 1016,1 hPa 0,0 mm 0,0 km/h (0 Bft) NW 315 0 min 0 UV-I 0 W/m 1,6 km/h (1 Bft)
15.07.2007 02:30 18,4 C 89 % 1016,2 hPa 0,0 mm 0,0 km/h (0 Bft) NW 315 0 min 0 UV-I 0 W/m 1,6 km/h (1 Bft)
15.07.2007 02:40 18,4 C 88 % 1016,3 hPa 0,0 mm 0,0 km/h (0 Bft) N 0 0 min 0 UV-I 0 W/m 0,0 km/h (0 Bft)
15.07.2007 02:50 18,2 C 89 % 1016,3 hPa 0,0 mm 0,0 km/h (0 Bft) N 0 0 min 0 UV-I 0 W/m 0,0 km/h (0 Bft)
15.07.2007 03:00 18,1 C 89 % 1016,4 hPa 0,0 mm 0,0 km/h (0 Bft) N 0 0 min 0 UV-I 0 W/m 0,0 km/h (0 Bft)
15.07.2007 03:10 17,8 C 90 % 1016,4 hPa 0,0 mm 0,0 km/h (0 Bft) N 0 0 min 0 UV-I 0 W/m 0,0 km/h (0 Bft)
15.07.2007 03:20 17,8 C 90 % 1016,5 hPa 0,0 mm 0,0 km/h (0 Bft) N 0 0 min 0 UV-I 0 W/m 0,0 km/h (0 Bft)
15.07.2007 03:30 17,7 C 90 % 1016,4 hPa 0,0 mm 0,0 km/h (0 Bft) N 0 0 min 0 UV-I 0 W/m 0,0 km/h (0 Bft)
15.07.2007 03:40 17,6 C 91 % 1016,4 hPa 0,0 mm 0,0 km/h (0 Bft) N 0 0 min 0 UV-I 0 W/m 0,0 km/h (0 Bft)
15.07.2007 03:50 17,6 C 90 % 1016,4 hPa 0,0 mm 0,0 km/h (0 Bft) N 0 0 min 0 UV-I 0 W/m 0,0 km/h (0 Bft)
15.07.2007 04:00 17,4 C 90 % 1016,3 hPa 0,0 mm 0,0 km/h (0 Bft) N 0 0 min 0 UV-I 0 W/m 0,0 km/h (0 Bft)
15.07.2007 04:10 17,2 C 91 % 1016,3 hPa 0,0 mm 0,0 km/h (0 Bft) N 0 0 min 0 UV-I 0 W/m 0,0 km/h (0 Bft)
15.07.2007 04:20 17,1 C 91 % 1016,3 hPa 0,0 mm 0,0 km/h (0 Bft) N 0 0 min 0 UV-I 0 W/m 0,0 km/h (0 Bft)
15.07.2007 04:30 17,1 C 91 % 1016,3 hPa 0,0 mm 0,0 km/h (0 Bft) N 0 0 min 0 UV-I 0 W/m 0,0 km/h (0 Bft)
15.07.2007 04:40 17,0 C 91 % 1016,2 hPa 0,0 mm 0,0 km/h (0 Bft) N 0 0 min 0 UV-I 0 W/m 0,0 km/h (0 Bft)
15.07.2007 04:50 16,9 C 91 % 1016,2 hPa 0,0 mm 0,0 km/h (0 Bft) N 0 0 min 0 UV-I 0 W/m 0,0 km/h (0 Bft)
15.07.2007 05:00 16,8 C 91 % 1016,1 hPa 0,0 mm 0,0 km/h (0 Bft) N 0 0 min 0 UV-I 0 W/m 0,0 km/h (0 Bft)
15.07.2007 05:10 16,7 C 91 % 1016,1 hPa 0,0 mm 0,0 km/h (0 Bft) N 0 0 min 0 UV-I 0 W/m 0,0 km/h (0 Bft)
15.07.2007 05:20 16,7 C 91 % 1016,2 hPa 0,0 mm 0,0 km/h (0 Bft) N 0 0 min 0 UV-I 0 W/m 0,0 km/h (0 Bft)
15.07.2007 05:30 16,6 C 91 % 1016,2 hPa 0,0 mm 0,0 km/h (0 Bft) N 0 0 min 0 UV-I 0 W/m 0,0 km/h (0 Bft)
15.07.2007 05:40 16,4 C 91 % 1016,2 hPa 0,0 mm 0,0 km/h (0 Bft) N 0 0 min 0 UV-I 7 W/m 0,0 km/h (0 Bft)
15.07.2007 05:50 16,4 C 92 % 1016,1 hPa 0,0 mm 0,0 km/h (0 Bft) N 0 0 min 0 UV-I 11 W/m 0,0 km/h (0 Bft)
15.07.2007 06:00 16,6 C 92 % 1015,9 hPa 0,0 mm 0,0 km/h (0 Bft) N 0 0 min 0 UV-I 16 W/m 0,0 km/h (0 Bft)
15.07.2007 06:10 16,6 C 92 % 1015,9 hPa 0,0 mm 0,0 km/h (0 Bft) N 0 0 min 0 UV-I 21 W/m 0,0 km/h (0 Bft)
15.07.2007 06:20 16,7 C 92 % 1015,9 hPa 0,0 mm 0,0 km/h (0 Bft) N 0 0 min 0 UV-I 25 W/m 0,0 km/h (0 Bft)
15.07.2007 06:30 16,8 C 91 % 1015,8 hPa 0,0 mm 0,0 km/h (0 Bft) N 0 0 min 0 UV-I 70 W/m 0,0 km/h (0 Bft)
15.07.2007 06:40 16,9 C 91 % 1015,7 hPa 0,0 mm 0,0 km/h (0 Bft) N 0 0 min 0 UV-I 86 W/m 0,0 km/h (0 Bft)
15.07.2007 06:50 17,0 C 91 % 1015,7 hPa 0,0 mm 0,0 km/h (0 Bft) N 0 0 min 0 UV-I 88 W/m 0,0 km/h (0 Bft)
15.07.2007 07:00 17,3 C 90 % 1015,6 hPa 0,0 mm 0,0 km/h (0 Bft) N 0 10 min 0 UV-I 125 W/m 0,0 km/h (0 Bft)
15.07.2007 07:10 17,7 C 90 % 1015,6 hPa 0,0 mm 0,0 km/h (0 Bft) N 0 10 min 0 UV-I 148 W/m 0,0 km/h (0 Bft)
15.07.2007 07:20 18,2 C 88 % 1015,6 hPa 0,0 mm 1,6 km/h (1 Bft) NO 45 10 min 0 UV-I 171 W/m 4,8 km/h (1 Bft)
15.07.2007 07:30 18,8 C 87 % 1015,5 hPa 0,0 mm 1,6 km/h (1 Bft) NO 45 10 min 1 UV-I 197 W/m 4,8 km/h (1 Bft)
15.07.2007 07:40 19,4 C 85 % 1015,4 hPa 0,0 mm 1,6 km/h (1 Bft) NO 45 10 min 1 UV-I 223 W/m 8,0 km/h (2 Bft)
15.07.2007 07:50 20,1 C 84 % 1015,2 hPa 0,0 mm 3,2 km/h (1 Bft) SO 135 10 min 1 UV-I 241 W/m 8,0 km/h (2 Bft)
15.07.2007 08:00 20,8 C 82 % 1015,2 hPa 0,0 mm 3,2 km/h (1 Bft) O-SO 112 10 min 1 UV-I 267 W/m 8,0 km/h (2 Bft)
15.07.2007 08:10 21,4 C 80 % 1015,1 hPa 0,0 mm 4,8 km/h (1 Bft) O-SO 112 10 min 1 UV-I 295 W/m 11,3 km/h (2 Bft)
15.07.2007 08:20 21,9 C 78 % 1014,9 hPa 0,0 mm 4,8 km/h (1 Bft) O-SO 112 10 min 1 UV-I 320 W/m 17,7 km/h (3 Bft)
15.07.2007 08:30 22,5 C 77 % 1015,0 hPa 0,0 mm 4,8 km/h (1 Bft) O-SO 112 10 min 1 UV-I 350 W/m 17,7 km/h (3 Bft)
15.07.2007 08:40 23,0 C 74 % 1014,9 hPa 0,0 mm 4,8 km/h (1 Bft) O-SO 112 10 min 2 UV-I 376 W/m 11,3 km/h (2 Bft)
15.07.2007 08:50 23,5 C 72 % 1014,9 hPa 0,0 mm 3,2 km/h (1 Bft) SO 135 10 min 2 UV-I 399 W/m 9,7 km/h (2 Bft)
15.07.2007 09:00 23,9 C 72 % 1015,0 hPa 0,0 mm 3,2 km/h (1 Bft) O-SO 112 10 min 2 UV-I 425 W/m 8,0 km/h (2 Bft)
15.07.2007 09:10 24,4 C 70 % 1015,1 hPa 0,0 mm 4,8 km/h (1 Bft) O-SO 112 10 min 2 UV-I 457 W/m 9,7 km/h (2 Bft)
15.07.2007 09:20 24,8 C 70 % 1015,0 hPa 0,0 mm 4,8 km/h (1 Bft) O 90 10 min 2 UV-I 490 W/m 9,7 km/h (2 Bft)
15.07.2007 09:30 25,2 C 69 % 1014,9 hPa 0,0 mm 3,2 km/h (1 Bft) O 90 10 min 3 UV-I 510 W/m 9,7 km/h (2 Bft)
15.07.2007 09:40 25,7 C 65 % 1014,9 hPa 0,0 mm 4,8 km/h (1 Bft) O-SO 112 10 min 3 UV-I 531 W/m 11,3 km/h (2 Bft)
15.07.2007 09:50 26,3 C 63 % 1014,8 hPa 0,0 mm 4,8 km/h (1 Bft) O-SO 112 10 min 3 UV-I 566 W/m 9,7 km/h (2 Bft)
15.07.2007 10:00 26,7 C 63 % 1014,6 hPa 0,0 mm 4,8 km/h (1 Bft) O-SO 112 10 min 3 UV-I 577 W/m 11,3 km/h (2 Bft)
15.07.2007 10:10 27,2 C 61 % 1014,6 hPa 0,0 mm 6,4 km/h (2 Bft) O-SO 112 10 min 4 UV-I 612 W/m 14,5 km/h (3 Bft)
15.07.2007 10:20 27,4 C 60 % 1014,5 hPa 0,0 mm 6,4 km/h (2 Bft) O-SO 112 10 min 4 UV-I 635 W/m 11,3 km/h (2 Bft)
15.07.2007 10:30 27,9 C 59 % 1014,4 hPa 0,0 mm 4,8 km/h (1 Bft) O-SO 112 10 min 4 UV-I 657 W/m 14,5 km/h (3 Bft)
15.07.2007 10:40 28,2 C 55 % 1014,3 hPa 0,0 mm 4,8 km/h (1 Bft) S-SO 157 10 min 4 UV-I 677 W/m 16,1 km/h (3 Bft)
15.07.2007 10:50 28,5 C 54 % 1014,2 hPa 0,0 mm 6,4 km/h (2 Bft) S-SO 157 10 min 5 UV-I 772 W/m 20,9 km/h (4 Bft)
15.07.2007 11:00 28,2 C 57 % 1014,2 hPa 0,0 mm 4,8 km/h (1 Bft) SO 135 10 min 5 UV-I 863 W/m 17,7 km/h (3 Bft)
15.07.2007 11:10 28,2 C 56 % 1014,0 hPa 0,0 mm 6,4 km/h (2 Bft) O-SO 112 10 min 5 UV-I 819 W/m 16,1 km/h (3 Bft)
15.07.2007 11:20 28,3 C 58 % 1014,0 hPa 0,0 mm 6,4 km/h (2 Bft) O-SO 112 10 min 5 UV-I 900 W/m 19,3 km/h (3 Bft)
15.07.2007 11:30 28,7 C 56 % 1014,0 hPa 0,0 mm 6,4 km/h (2 Bft) O 90 10 min 6 UV-I 809 W/m 16,1 km/h (3 Bft)
15.07.2007 11:40 29,2 C 53 % 1013,9 hPa 0,0 mm 8,0 km/h (2 Bft) O-SO 112 10 min 6 UV-I 979 W/m 22,5 km/h (4 Bft)
15.07.2007 11:50 29,7 C 49 % 1013,9 hPa 0,0 mm 6,4 km/h (2 Bft) O-SO 112 10 min 6 UV-I 1041 W/m 16,1 km/h (3 Bft)
15.07.2007 12:00 28,8 C 52 % 1013,9 hPa 0,0 mm 6,4 km/h (2 Bft) SO 135 0 min 3 UV-I 339 W/m 19,3 km/h (3 Bft)
15.07.2007 12:10 28,3 C 52 % 1014,0 hPa 0,0 mm 6,4 km/h (2 Bft) SO 135 0 min 5 UV-I 403 W/m 20,9 km/h (4 Bft)
15.07.2007 12:20 28,1 C 54 % 1014,0 hPa 0,0 mm 4,8 km/h (1 Bft) SO 135 0 min 3 UV-I 271 W/m 14,5 km/h (3 Bft)
15.07.2007 12:30 27,6 C 60 % 1013,8 hPa 0,0 mm 4,8 km/h (1 Bft) O-SO 112 0 min 2 UV-I 251 W/m 17,7 km/h (3 Bft)
15.07.2007 12:40 27,3 C 61 % 1013,6 hPa 0,0 mm 4,8 km/h (1 Bft) SO 135 0 min 3 UV-I 251 W/m 11,3 km/h (2 Bft)
15.07.2007 12:50 26,9 C 63 % 1013,6 hPa 0,0 mm 6,4 km/h (2 Bft) O-SO 112 0 min 2 UV-I 253 W/m 16,1 km/h (3 Bft)
15.07.2007 13:00 26,9 C 64 % 1013,4 hPa 0,0 mm 6,4 km/h (2 Bft) O-SO 112 0 min 4 UV-I 325 W/m 14,5 km/h (3 Bft)
15.07.2007 13:10 26,6 C 65 % 1013,3 hPa 0,0 mm 4,8 km/h (1 Bft) O-SO 112 0 min 2 UV-I 229 W/m 16,1 km/h (3 Bft)
15.07.2007 13:20 26,9 C 64 % 1013,3 hPa 0,0 mm 3,2 km/h (1 Bft) O-SO 112 10 min 5 UV-I 524 W/m 14,5 km/h (3 Bft)
15.07.2007 13:30 28,4 C 58 % 1013,2 hPa 0,0 mm 4,8 km/h (1 Bft) SO 135 10 min 6 UV-I 1078 W/m 12,9 km/h (3 Bft)
15.07.2007 13:40 29,3 C 55 % 1013,1 hPa 0,0 mm 4,8 km/h (1 Bft) O-SO 112 0 min 6 UV-I 411 W/m 11,3 km/h (2 Bft)
15.07.2007 13:50 29,3 C 53 % 1013,3 hPa 0,0 mm 1,6 km/h (1 Bft) S-SW 202 0 min 4 UV-I 336 W/m 8,0 km/h (2 Bft)
15.07.2007 14:00 29,2 C 56 % 1013,2 hPa 0,0 mm 1,6 km/h (1 Bft) W-NW 292 0 min 4 UV-I 373 W/m 6,4 km/h (2 Bft)
15.07.2007 14:10 28,8 C 59 % 1013,1 hPa 0,0 mm 3,2 km/h (1 Bft) N-NW 337 0 min 4 UV-I 424 W/m 8,0 km/h (2 Bft)
15.07.2007 14:20 28,8 C 60 % 1013,0 hPa 0,0 mm 1,6 km/h (1 Bft) N 360 10 min 6 UV-I 513 W/m 4,8 km/h (1 Bft)
15.07.2007 14:30 29,5 C 59 % 1013,0 hPa 0,0 mm 1,6 km/h (1 Bft) N 360 10 min 7 UV-I 1102 W/m 4,8 km/h (1 Bft)
15.07.2007 14:40 29,9 C 56 % 1012,8 hPa 0,0 mm 0,0 km/h (0 Bft) N 360 10 min 6 UV-I 773 W/m 4,8 km/h (1 Bft)
15.07.2007 14:50 31,1 C 51 % 1012,6 hPa 0,0 mm 0,0 km/h (0 Bft) N 360 10 min 6 UV-I 909 W/m 4,8 km/h (1 Bft)
15.07.2007 15:00 32,4 C 45 % 1012,4 hPa 0,0 mm 3,2 km/h (1 Bft) W-NW 292 10 min 6 UV-I 881 W/m 9,7 km/h (2 Bft)
15.07.2007 15:10 33,3 C 35 % 1012,4 hPa 0,0 mm 4,8 km/h (1 Bft) O-SO 112 10 min 6 UV-I 860 W/m 17,7 km/h (3 Bft)
15.07.2007 15:20 33,2 C 36 % 1012,4 hPa 0,0 mm 4,8 km/h (1 Bft) S 180 10 min 5 UV-I 805 W/m 17,7 km/h (3 Bft)
15.07.2007 15:30 33,6 C 31 % 1012,2 hPa 0,0 mm 6,4 km/h (2 Bft) SO 135 10 min 5 UV-I 798 W/m 19,3 km/h (3 Bft)
15.07.2007 15:40 33,8 C 31 % 1012,1 hPa 0,0 mm 6,4 km/h (2 Bft) S 180 10 min 5 UV-I 788 W/m 17,7 km/h (3 Bft)
15.07.2007 15:50 34,2 C 35 % 1012,0 hPa 0,0 mm 6,4 km/h (2 Bft) S-SO 157 10 min 5 UV-I 770 W/m 20,9 km/h (4 Bft)
15.07.2007 16:00 34,4 C 31 % 1012,0 hPa 0,0 mm 5,9 km/h (2 Bft) S 179 10 min 4 UV-I 469 W/m 11,3 km/h (2 Bft)
15.07.2007 16:10 34,6 C 30 % 1011,9 hPa 0,0 mm 6,4 km/h (2 Bft) S 180 10 min 4 UV-I 747 W/m 19,3 km/h (3 Bft)
15.07.2007 16:20 34,7 C 30 % 1011,7 hPa 0,0 mm 6,4 km/h (2 Bft) S 180 10 min 4 UV-I 726 W/m 19,3 km/h (3 Bft)
15.07.2007 16:30 34,7 C 31 % 1011,6 hPa 0,0 mm 6,4 km/h (2 Bft) S 180 10 min 4 UV-I 705 W/m 22,5 km/h (4 Bft)
15.07.2007 16:40 34,8 C 30 % 1011,5 hPa 0,0 mm 6,4 km/h (2 Bft) SO 135 10 min 4 UV-I 679 W/m 19,3 km/h (3 Bft)
15.07.2007 16:50 34,9 C 29 % 1011,3 hPa 0,0 mm 6,4 km/h (2 Bft) S 180 10 min 3 UV-I 652 W/m 17,7 km/h (3 Bft)
15.07.2007 17:00 34,7 C 30 % 1011,2 hPa 0,0 mm 8,0 km/h (2 Bft) S-SO 157 10 min 3 UV-I 635 W/m 22,5 km/h (4 Bft)
15.07.2007 17:10 34,8 C 30 % 1011,2 hPa 0,0 mm 6,4 km/h (2 Bft) S-SO 157 10 min 3 UV-I 612 W/m 20,9 km/h (4 Bft)
15.07.2007 17:20 34,8 C 31 % 1011,1 hPa 0,0 mm 4,8 km/h (1 Bft) S-SO 157 10 min 3 UV-I 585 W/m 16,1 km/h (3 Bft)
15.07.2007 17:30 34,7 C 31 % 1011,0 hPa 0,0 mm 6,4 km/h (2 Bft) S 180 10 min 3 UV-I 564 W/m 20,9 km/h (4 Bft)
15.07.2007 17:40 34,7 C 31 % 1010,9 hPa 0,0 mm 4,8 km/h (1 Bft) S-SO 157 10 min 2 UV-I 543 W/m 17,7 km/h (3 Bft)
15.07.2007 17:50 34,8 C 31 % 1010,9 hPa 0,0 mm 4,8 km/h (1 Bft) SO 135 10 min 2 UV-I 524 W/m 14,5 km/h (3 Bft)
15.07.2007 18:00 34,5 C 31 % 1010,8 hPa 0,0 mm 6,4 km/h (2 Bft) SO 135 10 min 2 UV-I 494 W/m 17,7 km/h (3 Bft)
15.07.2007 18:10 34,4 C 32 % 1010,7 hPa 0,0 mm 6,4 km/h (2 Bft) S 180 10 min 2 UV-I 468 W/m 19,3 km/h (3 Bft)
15.07.2007 18:20 34,5 C 32 % 1010,6 hPa 0,0 mm 4,8 km/h (1 Bft) S-SO 157 10 min 2 UV-I 446 W/m 17,7 km/h (3 Bft)
15.07.2007 18:30 34,3 C 32 % 1010,5 hPa 0,0 mm 6,4 km/h (2 Bft) S-SO 157 10 min 2 UV-I 415 W/m 16,1 km/h (3 Bft)
15.07.2007 18:40 34,2 C 31 % 1010,3 hPa 0,0 mm 6,4 km/h (2 Bft) SO 135 10 min 1 UV-I 392 W/m 16,1 km/h (3 Bft)
15.07.2007 18:50 34,3 C 31 % 1010,3 hPa 0,0 mm 4,8 km/h (1 Bft) SO 135 10 min 1 UV-I 376 W/m 12,9 km/h (3 Bft)
15.07.2007 19:00 34,2 C 32 % 1010,2 hPa 0,0 mm 4,8 km/h (1 Bft) S 180 10 min 1 UV-I 343 W/m 14,5 km/h (3 Bft)
15.07.2007 19:10 34,1 C 33 % 1010,1 hPa 0,0 mm 4,8 km/h (1 Bft) S-SO 157 10 min 1 UV-I 330 W/m 11,3 km/h (2 Bft)
15.07.2007 19:20 33,9 C 31 % 1010,0 hPa 0,0 mm 4,8 km/h (1 Bft) S-SO 157 10 min 1 UV-I 311 W/m 19,3 km/h (3 Bft)
15.07.2007 19:30 33,7 C 33 % 1010,0 hPa 0,0 mm 3,2 km/h (1 Bft) S 180 10 min 1 UV-I 264 W/m 11,3 km/h (2 Bft)
15.07.2007 19:40 33,5 C 33 % 1009,9 hPa 0,0 mm 4,8 km/h (1 Bft) S-SO 157 10 min 1 UV-I 243 W/m 19,3 km/h (3 Bft)
15.07.2007 19:50 33,2 C 34 % 1009,8 hPa 0,0 mm 3,2 km/h (1 Bft) S-SO 157 10 min 1 UV-I 216 W/m 14,5 km/h (3 Bft)
15.07.2007 20:00 32,8 C 36 % 1009,8 hPa 0,0 mm 3,2 km/h (1 Bft) S 180 10 min 1 UV-I 181 W/m 9,7 km/h (2 Bft)
15.07.2007 20:10 32,4 C 38 % 1009,7 hPa 0,0 mm 1,6 km/h (1 Bft) S-SO 157 10 min 0 UV-I 155 W/m 6,4 km/h (2 Bft)
15.07.2007 20:20 32,0 C 39 % 1009,6 hPa 0,0 mm 1,6 km/h (1 Bft) S-SO 157 10 min 0 UV-I 125 W/m 6,4 km/h (2 Bft)
15.07.2007 20:30 31,4 C 40 % 1009,6 hPa 0,0 mm 1,6 km/h (1 Bft) S-SO 157 0 min 0 UV-I 39 W/m 4,8 km/h (1 Bft)
15.07.2007 20:40 30,9 C 42 % 1009,5 hPa 0,0 mm 0,0 km/h (0 Bft) S-SO 157 0 min 0 UV-I 35 W/m 3,2 km/h (1 Bft)
15.07.2007 20:50 30,4 C 45 % 1009,5 hPa 0,0 mm 0,0 km/h (0 Bft) S-SO 157 0 min 0 UV-I 30 W/m 4,8 km/h (1 Bft)
15.07.2007 21:00 29,7 C 47 % 1009,6 hPa 0,0 mm 0,0 km/h (0 Bft) S-SO 157 0 min 0 UV-I 26 W/m 1,6 km/h (1 Bft)
15.07.2007 21:10 28,9 C 52 % 1009,5 hPa 0,0 mm 0,0 km/h (0 Bft) N 0 0 min 0 UV-I 21 W/m 0,0 km/h (0 Bft)
15.07.2007 21:20 27,9 C 54 % 1009,7 hPa 0,0 mm 0,0 km/h (0 Bft) S-SO 157 10 min 0 UV-I 14 W/m 1,6 km/h (1 Bft)
15.07.2007 21:30 27,1 C 57 % 1009,7 hPa 0,0 mm 0,0 km/h (0 Bft) S-SO 157 0 min 0 UV-I 9 W/m 3,2 km/h (1 Bft)
15.07.2007 21:40 26,7 C 57 % 1009,8 hPa 0,0 mm 0,0 km/h (0 Bft) S-SO 157 0 min 0 UV-I 0 W/m 1,6 km/h (1 Bft)
15.07.2007 21:50 26,6 C 56 % 1009,9 hPa 0,0 mm 0,0 km/h (0 Bft) S-SO 157 0 min 0 UV-I 0 W/m 1,6 km/h (1 Bft)
15.07.2007 22:00 26,2 C 59 % 1009,9 hPa 0,0 mm 1,6 km/h (1 Bft) S-SO 157 0 min 0 UV-I 0 W/m 4,8 km/h (1 Bft)
15.07.2007 22:10 25,9 C 59 % 1010,0 hPa 0,0 mm 1,6 km/h (1 Bft) O-SO 112 0 min 0 UV-I 0 W/m 4,8 km/h (1 Bft)
15.07.2007 22:20 25,6 C 59 % 1010,0 hPa 0,0 mm 1,6 km/h (1 Bft) O-SO 112 0 min 0 UV-I 0 W/m 4,8 km/h (1 Bft)
15.07.2007 22:30 25,7 C 62 % 1010,0 hPa 0,0 mm 0,0 km/h (0 Bft) O-SO 112 0 min 0 UV-I 0 W/m 1,6 km/h (1 Bft)
15.07.2007 22:40 25,1 C 64 % 1010,2 hPa 0,0 mm 0,0 km/h (0 Bft) O-SO 112 0 min 0 UV-I 0 W/m 3,2 km/h (1 Bft)
15.07.2007 22:50 24,5 C 65 % 1010,2 hPa 0,0 mm 0,0 km/h (0 Bft) O-SO 112 0 min 0 UV-I 0 W/m 1,6 km/h (1 Bft)
15.07.2007 23:00 24,2 C 67 % 1010,3 hPa 0,0 mm 0,0 km/h (0 Bft) O-SO 112 0 min 0 UV-I 0 W/m 1,6 km/h (1 Bft)
15.07.2007 23:10 23,9 C 68 % 1010,3 hPa 0,0 mm 0,0 km/h (0 Bft) N 0 0 min 0 UV-I 0 W/m 0,0 km/h (0 Bft)
15.07.2007 23:20 23,4 C 69 % 1010,3 hPa 0,0 mm 1,6 km/h (1 Bft) O-SO 112 0 min 0 UV-I 0 W/m 6,4 km/h (2 Bft)
15.07.2007 23:30 23,2 C 69 % 1010,4 hPa 0,0 mm 0,0 km/h (0 Bft) SO 135 0 min 0 UV-I 0 W/m 3,2 km/h (1 Bft)
15.07.2007 23:40 23,2 C 69 % 1010,5 hPa 0,0 mm 0,0 km/h (0 Bft) SO 135 0 min 0 UV-I 0 W/m 1,6 km/h (1 Bft)
15.07.2007 23:50 22,9 C 71 % 1010,5 hPa 0,0 mm 0,0 km/h (0 Bft) SO 135 0 min 0 UV-I 0 W/m 1,6 km/h (1 Bft)
_ Min-Zeit 05:40 16:50 20:40 - 00:00 - - - - - 00:20
Minimum _ 16,4 C 29 % 1009,5 hPa - 0,0 km/h (0 Bft) - - - - - 0,0 km/h (0 Bft)
_ Max-Zeit 16:50 05:50 03:20 00:00 11:40 - - 07:00 14:30 14:30 11:40
Maximum _ 35,0 C 92 % 1016,5 hPa 0,0 mm 8,0 km/h
O-SO (2 Bft)
- - 10 min 7 UV-I 1102 W/m 22,5 km/h
N (4 Bft)
Durchschnitt _ 25,5 C 64 % 1013,4 hPa #0,0 mm 2,6 km/h (1 Bft) O-SO - #11:40 h 3 UV-I 435 W/m 8,2 km/h (2 Bft)